[[{"header":{"parameterUnit":"m.s-1","parameterCategory":1,"la1":30.2991,"la2":30.254,"lo1":-89.0895,"lo2":-89.0444,"dy":0.0017,"dx":0.0017,"nx":28,"ny":28,"refTime":"2023-10-13T09:00:00:Z","depth":0,"parameterNumber":2,"parameterNumberName":"U-component_of_WINDS"},"data":[0,0,0,0,0,0,0,0,0,0,0,0,0,0,0,0,0,0,0,0,0,0,0,0,0,0,0,0,0,0,0,0,0,0,0,0,0,0,0,0,0,0,0,0,0,0,0,0,0,0,0,0,0,0,0,0,0,0,2.5887,2.5888,0,2.5916,2.5916,2.5916,2.5896,2.5896,2.5895,2.5894,2.5921,2.5923,2.5924,0,0,0,0,0,0,0,0,0,0,0,0,0,2.5816,2.5817,2.5887,2.5888,2.5888,2.5916,2.5916,2.5916,2.5897,2.5896,2.5894,2.5893,2.5921,2.5923,2.5925,0,0,0,0,0,0,0,0,0,0,0,0,0,2.5846,2.5818,2.5887,2.5882,2.5881,2.5916,2.5916,2.5917,2.5897,2.5896,2.5894,2.5893,2.592,2.5922,2.5925,2.5966,0,0,2.5932,2.5933,0,0,0,0,0,0,0,0,2.5844,2.5848,2.5882,2.5882,2.5882,2.5901,2.5901,2.5933,2.5897,2.5891,2.5894,2.5892,2.5916,2.5918,2.5926,2.5967,2.5968,2.5932,2.5934,2.5935,2.5935,0,0,0,0,0,0,0,2.5842,2.5847,2.5898,2.5883,2.5882,2.5877,2.588,2.5907,2.591,2.5891,2.589,2.5894,2.5915,2.5924,2.5927,2.5969,2.5932,2.5934,2.5936,2.5936,2.6045,2.6047,0,0,0,0,0,0,2.5841,2.5845,2.5898,2.5899,2.5859,2.588,2.5883,2.5896,2.591,2.5911,2.5895,2.5893,2.5921,2.5924,2.5928,2.5977,2.5934,2.5937,2.5938,2.6044,2.6046,2.6047,0,0,0,0,0,0,2.5839,2.5845,2.5896,2.5872,2.5878,2.5883,2.5898,2.5898,2.5906,2.5913,2.5913,2.5903,2.592,2.5925,2.5957,2.5977,2.5938,2.594,2.6042,2.6044,2.6047,2.6075,0,0,0,0,0,0,2.5837,2.5845,2.586,2.5873,2.588,2.5925,2.5899,2.5899,2.5911,2.5908,2.5921,2.5921,2.5919,2.5953,2.5959,2.598,2.5942,2.604,2.6043,2.6046,2.6072,2.6078,2.6083,0,0,0,0,0,2.5835,2.5867,2.5861,2.5868,2.5899,2.5926,2.593,2.5927,2.5912,2.5928,2.5932,2.5921,2.5975,2.5957,2.5963,2.5985,2.6039,2.6042,2.6046,2.607,2.6077,2.6083,0,0,0,0,0,0,2.5856,2.5868,2.5862,2.5899,2.5912,2.5923,2.5942,2.5935,2.5952,2.5948,2.5944,2.5947,2.5981,2.5986,2.5966,2.6026,2.6004,2.6009,2.6021,2.6028,2.6033,2.603,2.5944,0,0,0,0,0,2.5865,2.5886,2.5896,2.5928,2.5935,2.5938,2.5949,2.5946,2.5959,2.5964,2.5971,2.5983,2.6003,2.6016,2.6034,2.6074,2.6076,2.6092,2.6098,2.6102,2.6105,2.6127,2.6135,2.6058,2.6058,2.6058,0,0,2.5884,2.5893,2.5907,2.5932,2.5942,2.5964,2.5942,2.5966,2.5982,2.5968,2.5998,2.6004,2.6018,2.6054,2.607,2.606,2.6128,2.6106,2.611,2.6111,2.6132,2.6139,2.6145,2.6061,2.606,2.606,0,0,2.5929,2.5939,2.5966,2.5977,2.5992,2.5994,2.6001,2.6014,2.6017,2.6048,2.6038,2.6057,2.6091,2.6102,2.6111,2.6164,2.6154,2.617,2.6197,2.6218,2.6224,2.623,2.6248,2.6254,2.6174,2.6174,2.6174,0,2.595,2.5983,2.5981,2.6007,2.6018,2.6008,2.6036,2.6046,2.6066,2.6074,2.6063,2.6106,2.6115,2.6153,2.6166,2.6175,2.6182,2.6167,2.6224,2.6229,2.6234,2.6251,2.6258,2.6176,2.6175,2.6175,2.6175,0,2.6008,2.6031,2.6052,2.6073,2.6087,2.6114,2.6116,2.6131,2.6128,2.6131,2.6164,2.6174,2.6195,2.6204,2.6201,2.6243,2.6236,2.6224,2.6202,2.6243,2.6259,2.6266,2.6178,2.6178,2.6177,2.6177,0,0,2.6065,2.6086,2.6094,2.6103,2.6121,2.6138,2.6165,2.6186,2.6199,2.6214,2.6236,2.6267,2.6256,2.6267,2.6265,2.6284,2.6325,2.627,2.6271,2.6279,2.6372,2.638,2.6388,2.632,2.6321,2.6322,2.6371,0,2.611,2.6157,2.6157,2.62,2.6222,2.6213,2.6237,2.625,2.6255,2.6274,2.6279,2.63,2.6285,2.6292,2.6311,2.6316,2.6343,2.6313,2.6339,2.634,2.6335,2.6396,2.6404,2.645,2.6377,2.6378,2.6379,0,2.6169,2.6187,2.6232,2.6248,2.6257,2.6278,2.6298,2.6316,2.6332,2.6334,2.6348,2.6343,2.6371,2.635,2.6387,2.6366,2.6378,2.6383,2.6384,2.6385,2.6361,2.6398,2.6464,2.6471,2.6389,2.6388,2.6388,0,2.6205,2.6241,2.6273,2.6282,2.63,2.6315,2.6324,2.6338,2.6351,2.6369,2.6377,2.6398,2.6409,2.6425,2.6427,2.6411,2.6465,2.6444,2.6467,2.6467,2.6477,2.6476,2.6545,2.6487,2.6487,2.6487,2.6486,0,2.6255,2.6283,2.629,2.6309,2.634,2.6341,2.6372,2.6379,2.6392,2.6413,2.6407,2.6427,2.6429,2.6449,2.645,2.6482,2.6487,2.6489,2.6489,2.6489,2.6488,2.6495,2.6491,2.6488,2.6488,2.6488,2.6487,0,2.63,2.6305,2.6339,2.6355,2.636,2.6382,2.6396,2.6414,2.642,2.6446,2.6452,2.646,2.6484,2.6488,2.6516,2.6517,2.6554,2.6551,2.6549,2.6548,2.6571,2.6568,2.6645,2.6655,2.6591,2.6592,2.6592,0,2.633,2.6352,2.637,2.6384,2.6394,2.6416,2.643,2.6433,2.6447,2.6468,2.6484,2.6507,2.6526,2.6565,2.6573,2.6594,2.6591,2.6617,2.6594,2.6594,2.6591,2.6589,2.6591,2.662,2.6621,2.6622,2.6622,0,2.6384,2.6386,2.6407,2.6429,2.6446,2.6463,2.6479,2.6491,2.6496,2.6513,2.6538,2.6552,2.6582,2.6605,2.6627,2.6636,2.663,2.663,2.6636,2.6635,2.6633,2.6634,2.6559,2.6627,2.6627,2.6626,2.6626,2.6626,2.6422,2.6441,2.6457,2.6481,2.6494,2.651,2.6528,2.6537,2.6558,2.6582,2.6582,2.661,2.6626,2.6655,2.6665,2.6686,2.6678,2.6687,2.6689,2.6691,2.6693,2.6631,2.669,2.669,2.669,2.669,2.669,0,2.6474,2.6485,2.6507,2.6531,2.6549,2.6544,2.6562,2.6578,2.6602,2.6618,2.6637,2.6666,2.669,2.6701,2.6724,2.6739,2.6737,2.6745,2.6743,2.6745,2.67,2.6691,2.6746,2.6746,2.6746,2.6746,2.6746,2.6746,2.6504,2.6536,2.654,2.6579,2.659,2.6617,2.6628,2.6643,2.6655,2.6688,2.6708,2.6715,2.673,2.6754,2.6775,2.6778,2.6786,2.6795,2.6796,2.6754,2.6748,2.6742,2.6735,2.6797,2.6797,2.684,2.684,2.684]},{"header":{"parameterUnit":"m.s-1","parameterCategory":1,"la1":30.2991,"la2":30.254,"lo1":-89.0895,"lo2":-89.0444,"dy":0.0017,"dx":0.0017,"nx":28,"ny":28,"refTime":"2023-10-13T09:00:00:Z","depth":0,"parameterNumber":3,"parameterNumberName":"V-component_of_WINDS"},"data":[0,0,0,0,0,0,0,0,0,0,0,0,0,0,0,0,0,0,0,0,0,0,0,0,0,0,0,0,0,0,0,0,0,0,0,0,0,0,0,0,0,0,0,0,0,0,0,0,0,0,0,0,0,0,0,0,0,0,-7.0125,-7.0127,0,-7.031,-7.0312,-7.0314,-7.0253,-7.0249,-7.0245,-7.0241,-7.0423,-7.0432,-7.044,0,0,0,0,0,0,0,0,0,0,0,0,0,-6.9712,-6.972,-7.0125,-7.0127,-7.013,-7.031,-7.0312,-7.0315,-7.0254,-7.0249,-7.0244,-7.0239,-7.042,-7.0431,-7.0441,0,0,0,0,0,0,0,0,0,0,0,0,0,-6.9894,-6.9723,-7.0125,-7.0121,-7.0123,-7.0309,-7.0313,-7.0316,-7.0255,-7.0249,-7.0243,-7.0237,-7.0417,-7.043,-7.0442,-7.0641,0,0,-7.0482,-7.0487,0,0,0,0,0,0,0,0,-6.9884,-6.9909,-7.0119,-7.0122,-7.0124,-7.0253,-7.0234,-7.0425,-7.0256,-7.0204,-7.0241,-7.0234,-7.0371,-7.0387,-7.0435,-7.065,-7.0658,-7.0483,-7.049,-7.0496,-7.05,0,0,0,0,0,0,0,-6.9871,-6.9901,-7.0198,-7.0122,-7.0125,-7.0108,-7.0127,-7.0269,-7.0319,-7.0208,-7.0204,-7.0228,-7.0371,-7.0422,-7.0438,-7.066,-7.0482,-7.0494,-7.0502,-7.0507,-7.1049,-7.1055,0,0,0,0,0,0,-6.9858,-6.9891,-7.0192,-7.0204,-6.9987,-7.012,-7.0142,-7.0217,-7.0317,-7.0327,-7.0232,-7.0224,-7.0403,-7.0424,-7.0445,-7.0686,-7.0496,-7.0508,-7.0515,-7.1042,-7.105,-7.1058,0,0,0,0,0,0,-6.985,-6.9886,-7.0185,-7.0046,-7.0083,-7.0134,-7.0219,-7.0224,-7.0276,-7.0335,-7.0343,-7.0277,-7.04,-7.0427,-7.0594,-7.0691,-7.0514,-7.0525,-7.1034,-7.1045,-7.1054,-7.1168,0,0,0,0,0,0,-6.9838,-6.9883,-6.9961,-7.0049,-7.0091,-7.0333,-7.0225,-7.0232,-7.0299,-7.029,-7.0379,-7.0388,-7.0397,-7.0575,-7.0607,-7.0705,-7.0535,-7.1026,-7.1039,-7.1051,-7.1156,-7.1181,-7.1202,0,0,0,0,0,-6.9823,-6.9983,-6.9965,-7.0002,-7.0189,-7.0339,-7.0363,-7.0372,-7.0307,-7.0385,-7.0423,-7.0385,-7.0675,-7.0593,-7.0628,-7.0732,-7.102,-7.1035,-7.105,-7.1145,-7.1176,-7.1202,0,0,0,0,0,0,-6.9903,-6.9995,-6.9975,-7.0169,-7.0247,-7.0328,-7.0426,-7.0404,-7.05,-7.0487,-7.0492,-7.0512,-7.0685,-7.0724,-7.0631,-7.093,-7.0837,-7.086,-7.0898,-7.0927,-7.095,-7.0937,-7.0546,0,0,0,0,0,-6.9943,-7.0059,-7.0132,-7.0296,-7.0337,-7.0375,-7.044,-7.0441,-7.0521,-7.0553,-7.0603,-7.068,-7.0789,-7.086,-7.0963,-7.1161,-7.1179,-7.125,-7.1273,-7.1292,-7.1311,-7.142,-7.1452,-7.1107,-7.1107,-7.1107,0,0,-7.0027,-7.0092,-7.0164,-7.0314,-7.0374,-7.0493,-7.0403,-7.0531,-7.0619,-7.0571,-7.0734,-7.0774,-7.0859,-7.1043,-7.1127,-7.1082,-7.1411,-7.1311,-7.1325,-7.1335,-7.1438,-7.1471,-7.15,-7.1117,-7.1115,-7.1114,0,0,-7.0241,-7.0302,-7.0446,-7.0509,-7.0603,-7.0627,-7.0662,-7.0748,-7.0773,-7.0937,-7.0904,-7.1006,-7.1193,-7.1256,-7.1313,-7.1552,-7.1521,-7.1585,-7.1706,-7.1811,-7.1839,-7.1863,-7.1949,-7.198,-7.1604,-7.1605,-7.1605,0,-7.0333,-7.0512,-7.0522,-7.0655,-7.0721,-7.0686,-7.0831,-7.0891,-7.1013,-7.1059,-7.1007,-7.1242,-7.1297,-7.1496,-7.1555,-7.1601,-7.164,-7.1575,-7.1834,-7.1859,-7.1881,-7.1963,-7.1996,-7.1612,-7.1611,-7.161,-7.161,0,-7.0621,-7.0746,-7.085,-7.0973,-7.105,-7.1188,-7.1217,-7.1295,-7.1289,-7.1318,-7.1485,-7.155,-7.1667,-7.1713,-7.1707,-7.1912,-7.1881,-7.1833,-7.1739,-7.1921,-7.1999,-7.203,-7.1622,-7.162,-7.1618,-7.1616,0,0,-7.089,-7.1017,-7.1055,-7.111,-7.1212,-7.1307,-7.1443,-7.156,-7.1627,-7.1711,-7.1825,-7.1985,-7.1941,-7.2005,-7.2006,-7.2098,-7.2285,-7.2038,-7.204,-7.2082,-7.2514,-7.2551,-7.2588,-7.2264,-7.227,-7.2275,-7.2507,0,-7.1113,-7.1355,-7.1368,-7.1587,-7.1702,-7.1671,-7.179,-7.1864,-7.1895,-7.1996,-7.2029,-7.2143,-7.2076,-7.2115,-7.2205,-7.2243,-7.2372,-7.2226,-7.2369,-7.2374,-7.235,-7.2628,-7.2667,-7.2883,-7.2538,-7.2543,-7.2546,0,-7.1405,-7.1503,-7.1735,-7.1821,-7.187,-7.1977,-7.2085,-7.2182,-7.2265,-7.2281,-7.2355,-7.2342,-7.248,-7.2382,-7.2571,-7.2472,-7.2531,-7.2559,-7.2567,-7.2581,-7.2472,-7.265,-7.2952,-7.2985,-7.2594,-7.259,-7.2587,0,-7.158,-7.1768,-7.1932,-7.198,-7.2085,-7.216,-7.2207,-7.2284,-7.2354,-7.2448,-7.2493,-7.26,-7.2659,-7.2742,-7.2758,-7.2686,-7.2948,-7.2851,-7.2964,-7.2964,-7.3021,-7.3018,-7.3338,-7.3058,-7.3058,-7.3057,-7.3057,0,-7.1828,-7.1971,-7.2012,-7.2113,-7.2272,-7.2284,-7.244,-7.2481,-7.2551,-7.2657,-7.2635,-7.2735,-7.2751,-7.2854,-7.2868,-7.3023,-7.3049,-7.3065,-7.3067,-7.3068,-7.3066,-7.3107,-7.3092,-7.3066,-7.3064,-7.3062,-7.3061,0,-7.205,-7.2083,-7.2259,-7.2345,-7.237,-7.2483,-7.2555,-7.2651,-7.268,-7.2815,-7.2848,-7.2893,-7.3014,-7.3039,-7.318,-7.3189,-7.3374,-7.336,-7.3347,-7.3346,-7.3458,-7.3448,-7.3817,-7.3866,-7.3553,-7.3556,-7.3558,0,-7.2206,-7.2316,-7.2415,-7.2486,-7.2537,-7.2652,-7.2724,-7.274,-7.2815,-7.2919,-7.3002,-7.312,-7.3217,-7.341,-7.3454,-7.3563,-7.3552,-7.3674,-7.3568,-7.3566,-7.3555,-7.3549,-7.356,-7.3694,-7.3697,-7.37,-7.3702,0,-7.2481,-7.2493,-7.2599,-7.2712,-7.2799,-7.2887,-7.2971,-7.303,-7.3057,-7.3142,-7.3267,-7.3342,-7.3489,-7.3606,-7.3715,-7.376,-7.3737,-7.3736,-7.3768,-7.377,-7.3758,-7.3767,-7.3403,-7.3727,-7.3725,-7.3723,-7.3721,-7.372,-7.2676,-7.2773,-7.2858,-7.2977,-7.3042,-7.3122,-7.3217,-7.3259,-7.3364,-7.3487,-7.3489,-7.3625,-7.3705,-7.3849,-7.3901,-7.4007,-7.3968,-7.4014,-7.4026,-7.4038,-7.4049,-7.3741,-7.4026,-7.4026,-7.4025,-7.4024,-7.4024,0,-7.2951,-7.3005,-7.3114,-7.3234,-7.3327,-7.3299,-7.3391,-7.347,-7.3592,-7.3669,-7.3765,-7.3909,-7.4023,-7.4077,-7.419,-7.4264,-7.4256,-7.4293,-7.4288,-7.4299,-7.4076,-7.4038,-7.4298,-7.4298,-7.4298,-7.4298,-7.4298,-7.4298,-7.3105,-7.3268,-7.329,-7.3484,-7.3536,-7.3672,-7.3727,-7.38,-7.3862,-7.4025,-7.4121,-7.4156,-7.4224,-7.4342,-7.4446,-7.4458,-7.4501,-7.4544,-7.4552,-7.4342,-7.4315,-7.4288,-7.4252,-7.4553,-7.4553,-7.4766,-7.4768,-7.4769]}]]